Stations météo

Publicité
Carcassonne, France (7635): Température de l'air & dewpoint: 19.05.2018 13:00:00 - 25.05.2018 13:00:00 (CEST)Carcassonne, France (7635): Température de l'air 5cm: 19.05.2018 13:00:00 - 25.05.2018 13:00:00 (CEST)Carcassonne, France (7635): Température de l'air -20cm & Température de l'air -100cm: 19.05.2018 13:00:00 - 25.05.2018 13:00:00 (CEST)Carcassonne, France (7635): Vitesse du vent & gusts: 19.05.2018 13:00:00 - 25.05.2018 13:00:00 (CEST)Carcassonne, France (7635): Direction du vent: 19.05.2018 13:00:00 - 25.05.2018 13:00:00 (CEST)Carcassonne, France (7635): reduced air pressure: 19.05.2018 13:00:00 - 25.05.2018 13:00:00 (CEST)Carcassonne, France (7635): visibility: 19.05.2018 13:00:00 - 25.05.2018 13:00:00 (CEST)Carcassonne, France (7635): Ensoleillement: 19.05.2018 13:00:00 - 25.05.2018 13:00:00 (CEST)Carcassonne, France (7635): Quantités de précipitations: 19.05.2018 13:00:00 - 25.05.2018 13:00:00 (CEST)
Date & Time tt [°C] td [°C] tt 5cm [°C] tt -20cm [°C] tt -100cm [°C] ff [km/h] ff [knt] fx [km/h] fx [knt] dd ppp [hPa] vv [km] sd [min] rr [mm]
25.05.2018 13:00:00 - - - - - - - - - - - - - -
25.05.2018 12:00:00 19,0 14,7 19,5 20,1 16,9 21 11 34 18 E 1016,4 31 0 0,0
25.05.2018 11:00:00 18,9 14,8 19,9 20,1 16,9 23 12 44 24 E 1015,9 20 4 0,0
25.05.2018 10:00:00 19,2 15,1 19,0 20,1 16,8 28 15 45 25 E 1015,6 14 9 0,0
25.05.2018 09:00:00 17,9 15,0 17,5 20,2 16,8 25 14 42 23 E 1015,3 19 0 0,0
25.05.2018 08:00:00 17,2 14,8 17,1 20,4 16,8 23 13 36 19 E 1015,4 12 0 0,0
25.05.2018 07:00:00 17,0 14,8 16,8 20,6 16,8 23 12 33 18 E 1015,3 12 0 0,0
25.05.2018 06:00:00 16,9 14,7 16,6 20,7 16,8 18 10 27 15 E 1015,2 12 0 0,0
25.05.2018 05:00:00 16,5 14,7 15,9 20,9 16,8 12 6 26 14 E 1015,6 11 0 0,0
25.05.2018 04:00:00 16,7 14,9 16,1 21,1 16,8 13 7 26 14 ESE 1015,7 9 0 0,0
25.05.2018 03:00:00 17,2 15,4 16,9 21,3 16,8 13 7 26 14 ESE 1016,1 9 0 0,0
25.05.2018 02:00:00 17,5 14,8 17,3 21,6 16,8 16 9 26 14 E 1016,5 13 0 0,0
25.05.2018 01:00:00 17,5 14,9 17,1 21,8 16,7 16 9 33 18 E 1016,5 12 0 0,0
25.05.2018 00:00:00 17,7 15,1 17,2 22,1 16,7 18 10 28 15 E 1016,8 11 0 0,0
24.05.2018 23:00:00 17,8 15,4 17,1 22,4 16,7 13 7 27 15 E 1017,0 9 0 0,0
24.05.2018 22:00:00 18,8 15,1 18,1 22,6 16,7 13 7 31 17 E 1016,5 11 0 0,0
24.05.2018 21:00:00 19,8 14,8 19,2 22,7 16,7 21 11 29 16 E 1015,9 15 17 0,0
24.05.2018 20:00:00 21,5 14,9 22,1 22,8 16,6 17 9 42 23 E 1015,6 20 46 0,0
24.05.2018 19:00:00 23,1 14,9 24,5 22,7 16,6 18 10 35 19 E 1015,4 20 53 0,0
24.05.2018 18:00:00 23,6 14,3 27,6 22,4 16,6 21 11 36 20 E 1015,2 16 60 0,0
24.05.2018 17:00:00 24,2 15,4 27,7 22,0 16,6 19 11 39 21 E 1015,1 15 60 0,0
24.05.2018 16:00:00 24,1 15,8 29,1 21,4 16,6 24 13 38 21 E 1015,5 15 60 0,0
24.05.2018 15:00:00 23,5 15,5 27,9 20,9 16,6 26 14 43 23 E 1015,8 15 60 0,0
24.05.2018 14:00:00 22,8 15,6 26,5 20,4 16,6 23 12 39 21 E 1016,3 15 53 0,0
24.05.2018 13:00:00 21,4 15,0 22,9 20,1 16,6 23 12 35 19 E 1016,8 16 41 0,0
24.05.2018 12:00:00 19,9 14,7 19,8 20,1 16,5 19 10 32 18 E 1017,3 17 0 0,0
24.05.2018 11:00:00 18,5 14,6 19,2 20,1 16,5 21 12 30 16 E 1017,3 15 0 0,0
24.05.2018 10:00:00 18,2 14,5 18,1 20,1 16,5 18 10 31 17 E 1017,6 12 0 0,0
24.05.2018 09:00:00 17,4 14,7 17,5 20,3 16,5 18 10 29 16 E 1017,6 11 0 0,0
24.05.2018 08:00:00 17,2 14,7 16,7 20,5 16,5 14 7 29 15 E 1017,2 12 0 0,0
24.05.2018 07:00:00 16,6 13,9 15,8 20,7 16,4 11 6 27 15 ESE 1017,0 14 1 0,0
24.05.2018 06:00:00 16,3 14,3 15,5 20,9 16,5 13 7 25 13 E 1016,8 11 0 0,0
24.05.2018 05:00:00 16,5 14,0 15,0 21,2 16,4 10 5 21 12 E 1017,0 17 0 0,0
24.05.2018 04:00:00 16,4 13,9 15,3 21,4 16,4 6 3 13 7 E 1017,0 20 0 0,0
24.05.2018 03:00:00 16,7 14,0 15,9 21,7 16,4 7 4 11 6 E 1016,8 21 0 0,0
24.05.2018 02:00:00 17,1 14,0 14,3 22,0 16,4 8 4 14 7 E 1017,0 25 0 0,0
24.05.2018 01:00:00 17,6 13,9 15,8 22,2 16,4 5 3 12 7 ENE 1017,4 31 0 0,0
24.05.2018 00:00:00 18,9 13,5 18,1 22,5 16,4 9 5 19 10 ESE 1017,6 39 0 0,0
23.05.2018 23:00:00 19,5 13,9 18,9 22,9 16,4 7 4 21 12 ESE 1017,6 41 0 0,0
23.05.2018 22:00:00 20,2 13,4 19,6 23,1 16,4 9 5 27 14 SE 1017,2 49 0 0,0
23.05.2018 21:00:00 20,8 13,5 20,5 23,3 16,4 19 10 41 22 E 1016,9 48 0 0,0
23.05.2018 20:00:00 22,0 13,4 21,7 23,4 16,4 27 14 40 22 E 1015,6 44 24 0,0
23.05.2018 19:00:00 26,6 10,7 29,5 23,2 16,3 8 4 13 7 NW 1014,4 39 60 0,0
23.05.2018 18:00:00 27,0 12,2 31,0 22,9 16,3 5 3 16 8 WSW 1014,5 40 60 0,0
23.05.2018 17:00:00 26,4 10,5 31,0 22,4 16,3 9 5 20 11 WSW 1014,7 16 60 0,0
23.05.2018 16:00:00 26,2 11,5 31,3 21,7 16,3 8 4 18 10 WSW 1015,1 34 60 0,0
23.05.2018 15:00:00 25,3 10,0 30,2 20,9 16,3 9 5 21 11 NW 1016,0 42 60 0,0
23.05.2018 14:00:00 24,5 12,4 28,9 20,3 16,3 11 6 24 13 W 1016,4 35 60 0,0
23.05.2018 13:00:00 23,4 13,6 27,8 19,6 16,2 16 9 27 15 WNW 1017,0 20 60 0,0
23.05.2018 12:00:00 22,6 14,7 26,4 19,2 16,3 14 8 28 15 W 1017,3 34 60 0,0
23.05.2018 11:00:00 21,3 13,7 23,8 18,9 16,3 13 7 23 12 W 1017,4 39 60 0,0
23.05.2018 10:00:00 19,8 12,8 21,4 18,8 16,2 13 7 22 12 W 1017,4 43 60 0,0
23.05.2018 09:00:00 17,8 12,9 17,6 18,9 16,2 8 4 14 8 W 1017,5 39 60 0,0
23.05.2018 08:00:00 14,9 13,1 12,4 19,1 16,2 4 2 9 5 SSW 1017,6 28 51 0,0
23.05.2018 07:00:00 12,7 11,8 10,7 19,3 16,2 6 4 11 6 S 1016,9 20 14 0,2
23.05.2018 06:00:00 12,3 11,4 10,4 19,6 16,2 4 2 8 5 S 1016,7 17 0 0,0
23.05.2018 05:00:00 12,2 11,1 10,0 19,8 16,2 0 0 6 3 N 1016,6 20 0 0,0
23.05.2018 04:00:00 12,6 11,5 10,3 20,1 16,2 4 2 8 4 SSW 1016,6 20 0 0,0
23.05.2018 03:00:00 13,1 12,0 10,8 20,4 16,1 4 2 9 5 S 1016,9 20 0 0,0
23.05.2018 02:00:00 13,6 12,3 11,1 20,7 16,1 4 2 5 3 S 1016,9 20 0 0,0
23.05.2018 01:00:00 14,1 12,5 11,3 21,0 16,1 2 1 4 2 WSW 1016,8 46 0 0,0
23.05.2018 00:00:00 14,9 12,2 12,1 21,3 16,1 2 1 8 4 N 1016,6 20 0 0,0
22.05.2018 23:00:00 16,0 12,5 12,4 21,6 16,1 4 2 9 5 NW 1016,2 57 0 0,0
22.05.2018 22:00:00 17,9 11,9 13,9 21,8 16,1 3 2 8 4 W 1015,1 60 0 0,0
22.05.2018 21:00:00 20,3 12,3 18,2 22,0 16,1 7 4 20 11 WNW 1014,5 60 48 0,0
22.05.2018 20:00:00 22,5 11,2 23,5 22,1 16,1 13 7 27 15 WNW 1013,8 36 60 0,0
22.05.2018 19:00:00 23,4 11,4 25,5 21,9 16,1 16 9 30 16 WNW 1013,2 22 60 0,0
22.05.2018 18:00:00 23,9 12,8 27,3 21,6 16,1 16 9 28 15 W 1013,0 21 60 0,0
22.05.2018 17:00:00 23,4 12,4 25,0 21,1 16,1 19 10 30 16 WNW 1013,2 20 60 0,0
22.05.2018 16:00:00 23,2 13,7 27,2 20,5 16,1 17 9 33 18 W 1013,3 19 60 0,0
22.05.2018 15:00:00 22,9 15,0 23,7 19,8 16,0 19 10 34 19 WNW 1013,7 18 58 0,0
22.05.2018 14:00:00 21,8 13,4 25,4 19,2 16,0 22 12 36 20 WNW 1014,0 18 57 0,0
22.05.2018 13:00:00 21,0 13,7 23,3 18,7 16,0 19 10 38 21 WNW 1014,2 19 58 0,0
22.05.2018 12:00:00 20,2 14,1 20,5 18,4 16,0 24 13 36 20 WNW 1014,5 19 45 0,0
22.05.2018 11:00:00 19,0 14,3 17,9 18,4 16,0 21 11 33 18 WNW 1014,4 20 13 0,0
22.05.2018 10:00:00 16,9 13,6 17,6 18,3 16,0 16 9 24 13 W 1014,4 40 5 0,0
22.05.2018 09:00:00 16,6 13,9 15,0 18,4 16,0 10 6 18 10 W 1014,2 20 33 0,0
22.05.2018 08:00:00 14,5 14,0 12,0 18,5 15,9 5 3 9 5 SW 1013,8 14 0 0,0
22.05.2018 07:00:00 12,8 12,2 9,5 18,7 15,9 4 2 6 4 SW 1013,3 6 8 0,0
22.05.2018 06:00:00 12,4 11,6 9,6 19,0 16,0 3 1 6 3 W 1012,9 6 0 0,0
22.05.2018 05:00:00 12,8 11,9 10,3 19,2 15,9 2 1 4 2 ESE 1012,6 8 0 0,0
22.05.2018 04:00:00 13,5 12,7 10,0 19,4 15,9 4 2 9 5 SSW 1012,7 13 0 0,0
22.05.2018 03:00:00 12,6 11,2 10,1 19,7 15,9 3 2 6 3 NW 1012,6 4,5 0 0,0
22.05.2018 02:00:00 13,7 12,1 10,8 19,9 15,9 0 0 6 3 N 1012,5 8 0 0,0
22.05.2018 01:00:00 14,8 13,0 11,9 20,1 15,8 3 1 12 7 SSE 1012,3 18 0 0,0
22.05.2018 00:00:00 15,5 12,8 13,4 20,4 15,8 8 4 16 9 ENE 1012,4 26 0 0,0
21.05.2018 23:00:00 16,7 12,8 15,7 20,7 15,8 13 7 23 12 E 1011,9 35 0 0,0
21.05.2018 22:00:00 18,3 12,5 17,3 21,0 15,8 17 9 31 17 E 1011,2 44 0 0,0
21.05.2018 21:00:00 19,5 12,3 18,5 21,2 15,8 22 12 36 19 E 1010,7 55 27 0,0
21.05.2018 20:00:00 21,6 11,6 22,6 21,3 15,8 25 13 38 21 E 1010,2 25 60 0,0
21.05.2018 19:00:00 22,8 10,9 25,2 21,3 15,8 28 15 41 22 E 1009,8 25 60 0,0
21.05.2018 18:00:00 23,5 11,9 27,4 21,0 15,8 29 15 40 22 E 1009,6 24 60 0,0
21.05.2018 17:00:00 23,8 12,1 25,0 20,7 15,7 26 14 43 23 E 1009,7 25 53 0,0
21.05.2018 16:00:00 23,7 12,3 26,6 20,4 15,7 26 14 45 24 E 1010,1 30 56 0,0
21.05.2018 15:00:00 23,3 12,9 25,4 19,9 15,7 24 13 41 22 E 1010,7 33 35 0,0
21.05.2018 14:00:00 22,4 13,5 26,6 19,5 15,7 25 14 40 22 E 1011,2 35 55 0,0
21.05.2018 13:00:00 22,2 12,7 21,9 19,2 15,7 21 12 38 20 E 1011,7 40 42 0,0
21.05.2018 12:00:00 19,6 12,4 21,2 18,9 15,7 23 12 33 18 E 1012,2 39 0 0,0
21.05.2018 11:00:00 19,6 12,8 22,4 18,7 15,6 22 12 30 16 E 1012,5 17 37 0,0
21.05.2018 10:00:00 18,9 12,6 20,1 18,7 15,7 21 11 32 17 E 1012,7 17 46 0,0
21.05.2018 09:00:00 17,9 13,2 18,7 18,6 15,6 16 9 29 15 E 1013,0 17 60 0,0
21.05.2018 08:00:00 16,4 13,3 14,5 18,8 15,6 13 7 22 12 E 1013,0 18 60 0,0
21.05.2018 07:00:00 14,3 13,2 12,4 18,9 15,6 4 2 9 5 ESE 1013,1 16 15 0,0
21.05.2018 06:00:00 13,3 12,0 12,0 19,2 15,5 4 2 8 4 E 1012,9 11 0 0,0
21.05.2018 05:00:00 13,8 12,4 11,2 19,4 15,5 7 4 10 5 E 1012,8 16 0 0,0
21.05.2018 04:00:00 14,4 11,5 11,7 19,7 15,5 0 0 13 7 N 1013,0 19 0 0,0
21.05.2018 03:00:00 15,2 12,5 13,2 19,9 15,5 6 4 14 8 ESE 1013,1 41 0 0,0
21.05.2018 02:00:00 14,8 11,8 13,2 20,1 15,5 4 2 13 7 NE 1013,9 53 0 0,0
21.05.2018 01:00:00 15,5 12,1 15,0 20,3 15,5 7 4 11 6 S 1013,8 60 0 0,0
21.05.2018 00:00:00 15,9 12,6 15,2 20,6 15,5 6 3 10 6 S 1014,0 57 0 0,0
20.05.2018 23:00:00 15,8 13,1 14,5 20,8 15,5 4 2 10 5 SSW 1014,1 60 0 0,0
20.05.2018 22:00:00 16,5 13,6 15,0 21,0 15,5 3 2 5 3 NNW 1014,1 53 0 0,0
20.05.2018 21:00:00 17,2 13,3 15,7 21,2 15,5 3 2 9 5 NW 1013,5 59 0 0,0
20.05.2018 20:00:00 18,4 12,2 18,1 21,3 15,4 4 2 17 9 SSW 1013,3 59 7 0,0
20.05.2018 19:00:00 20,3 12,8 20,0 21,2 15,4 7 4 22 12 S 1013,0 49 26 0,0
20.05.2018 18:00:00 19,9 12,4 16,1 21,1 15,4 10 6 26 14 E 1012,9 46 11 1,6
20.05.2018 17:00:00 19,2 10,7 21,3 20,8 15,4 18 10 29 16 NNE 1013,3 27 3 0,0
20.05.2018 16:00:00 22,0 11,1 23,7 20,2 15,4 15 8 25 13 E 1013,4 55 43 0,0
20.05.2018 15:00:00 23,8 13,6 28,6 19,5 15,4 13 7 24 13 WNW 1013,7 20 60 0,0
20.05.2018 14:00:00 22,8 13,3 27,1 18,9 15,4 14 8 27 15 WNW 1014,4 20 60 0,0
20.05.2018 13:00:00 21,6 13,0 25,5 18,4 15,4 20 11 29 16 WNW 1015,4 24 60 0,0
20.05.2018 12:00:00 20,2 12,9 23,6 18,0 15,3 16 8 28 15 W 1016,3 22 60 0,0
20.05.2018 11:00:00 18,8 12,5 19,3 17,8 15,3 16 9 27 15 WNW 1016,5 23 60 0,0
20.05.2018 10:00:00 17,2 12,1 17,2 17,7 15,3 15 8 28 15 W 1017,0 20 53 0,0
20.05.2018 09:00:00 15,5 12,4 15,3 17,8 15,3 13 7 20 11 W 1017,1 19 25 0,0
20.05.2018 08:00:00 14,3 13,0 11,3 18,0 15,3 7 4 12 7 W 1016,9 16 7 0,0
20.05.2018 07:00:00 12,4 11,6 9,0 18,2 15,2 9 5 12 6 SW 1016,7 9 12 0,0
20.05.2018 06:00:00 11,7 10,6 8,9 18,5 15,2 7 4 10 5 SW 1016,5 8 0 0,0
20.05.2018 05:00:00 12,7 11,3 9,8 18,8 15,2 6 3 11 6 SW 1016,5 9 0 0,0
20.05.2018 04:00:00 13,5 12,1 10,3 19,0 15,2 8 5 11 6 WSW 1016,6 10 0 0,0
20.05.2018 03:00:00 13,4 12,1 10,4 19,3 15,2 7 4 10 5 WSW 1017,1 10 0 0,0
20.05.2018 02:00:00 13,8 12,0 11,0 19,5 15,2 0 0 10 5 N 1017,3 12 0 0,0
20.05.2018 01:00:00 14,6 12,6 11,5 19,8 15,1 5 3 8 4 W 1017,2 14 0 0,0
20.05.2018 00:00:00 15,5 12,4 12,5 20,1 15,2 4 2 14 7 W 1017,1 19 0 0,0
19.05.2018 23:00:00 16,1 13,2 13,4 20,2 15,1 3 1 7 4 WNW 1016,8 19 0 0,0
19.05.2018 22:00:00 17,5 14,0 14,8 20,5 15,1 4 2 8 4 WSW 1016,2 20 0 0,0
19.05.2018 21:00:00 19,2 13,6 16,4 20,6 15,1 5 3 18 10 NW 1015,8 28 39 0,0
19.05.2018 20:00:00 21,2 13,9 21,9 20,6 15,1 13 7 25 14 WNW 1015,7 33 58 0,0
19.05.2018 19:00:00 21,7 13,8 23,7 20,6 15,1 19 10 39 21 WNW 1015,4 18 60 0,0
19.05.2018 18:00:00 21,6 14,5 24,2 20,3 15,1 26 14 45 25 WNW 1015,7 15 60 0,0
19.05.2018 17:00:00 21,5 14,6 24,5 20,0 15,0 23 13 46 25 W 1015,4 17 60 0,0
19.05.2018 16:00:00 21,0 14,4 24,3 19,5 15,0 26 14 46 25 W 1015,9 15 60 0,0
19.05.2018 15:00:00 20,2 14,3 23,5 19,0 15,0 26 14 45 24 W 1016,3 15 60 0,0
19.05.2018 14:00:00 19,3 13,9 23,4 18,5 15,0 26 14 43 23 W 1017,0 14 60 0,0
19.05.2018 13:00:00 19,1 13,9 22,3 18,1 15,0 25 13 41 22 W 1017,5 14 60 0,0

tt = Température de l'air
td = dewpoint
tt 5cm = Température de l'air 5cm
tt -20cm = Température de l'air -20cm
tt -100cm = Température de l'air -100cm
ff = Vitesse du vent
fx = gusts
dd = Direction du vent
ppp = reduced air pressure
vv = visibility
sd = Ensoleillement
rr = Quantités de précipitations

stations d'obs. à proximité